TimeEST,TemperatureF,Dew PointF,Humidity,Sea Level PressureIn,VisibilityMPH,Wind Direction,Wind SpeedMPH,Gust SpeedMPH,PrecipitationIn,Events,Conditions,WindDirDegrees,DateUTC
12:15 AM,21.2,19.4,93,29.77,-9999.0,West,19.6,32.2,N/A,,Unknown,280,2012-12-30 05:15:00
12:35 AM,21.2,19.4,93,29.78,-9999.0,West,23.0,32.2,N/A,,Overcast,280,2012-12-30 05:35:00
12:55 AM,21.2,19.4,93,29.79,-9999.0,West,20.7,32.2,N/A,,Unknown,280,2012-12-30 05:55:00
1:15 AM,21.2,19.4,93,29.80,-9999.0,West,21.9,33.4,N/A,,Unknown,280,2012-12-30 06:15:00
1:35 AM,21.2,19.4,93,29.80,-9999.0,West,20.7,31.1,N/A,,Overcast,280,2012-12-30 06:35:00
1:55 AM,21.2,19.4,93,29.80,-9999.0,WNW,21.9,34.5,N/A,,Unknown,290,2012-12-30 06:55:00
2:15 AM,21.2,19.4,93,29.82,-9999.0,WNW,25.3,33.4,N/A,,Unknown,290,2012-12-30 07:15:00
2:35 AM,21.2,19.4,93,29.84,-9999.0,WNW,25.3,33.4,N/A,,Unknown,290,2012-12-30 07:35:00
2:55 AM,19.4,19.4,100,29.85,-9999.0,West,21.9,29.9,N/A,,Unknown,280,2012-12-30 07:55:00
3:15 AM,19.4,17.6,93,29.85,-9999.0,WNW,24.2,33.4,N/A,,Unknown,290,2012-12-30 08:15:00
3:35 AM,19.4,15.8,86,29.86,-9999.0,WNW,23.0,32.2,N/A,,Unknown,290,2012-12-30 08:35:00
3:55 AM,19.4,15.8,86,29.87,-9999.0,WNW,25.3,33.4,N/A,,Unknown,290,2012-12-30 08:55:00
4:15 AM,19.4,15.8,86,29.87,-9999.0,West,24.2,35.7,N/A,,Unknown,280,2012-12-30 09:15:00
4:35 AM,-9999,-9999,N/A,29.89,-9999.0,WNW,24.2,31.1,N/A,,Unknown,290,2012-12-30 09:35:00
4:55 AM,19.4,15.8,86,29.90,-9999.0,WNW,20.7,35.7,N/A,,Overcast,290,2012-12-30 09:55:00
5:15 AM,17.6,15.8,93,29.93,-9999.0,WNW,20.7,33.4,N/A,,Overcast,300,2012-12-30 10:15:00
5:35 AM,17.6,15.8,93,29.95,-9999.0,West,26.5,32.2,N/A,,Overcast,280,2012-12-30 10:35:00
5:55 AM,17.6,15.8,93,29.98,-9999.0,WNW,19.6,32.2,N/A,,Unknown,300,2012-12-30 10:55:00
6:15 AM,17.6,15.8,93,29.99,-9999.0,WNW,17.3,31.1,N/A,,Overcast,290,2012-12-30 11:15:00
6:35 AM,17.6,14.0,86,30.01,-9999.0,WNW,20.7,34.5,N/A,,Overcast,300,2012-12-30 11:35:00
6:55 AM,17.6,15.8,93,30.02,-9999.0,WNW,23.0,27.6,N/A,,Overcast,290,2012-12-30 11:55:00
7:35 AM,17.6,15.8,93,30.04,-9999.0,WNW,21.9,28.8,N/A,,Overcast,290,2012-12-30 12:35:00
7:55 AM,17.6,15.8,93,30.05,-9999.0,WNW,24.2,33.4,N/A,,Overcast,290,2012-12-30 12:55:00
8:15 AM,17.6,15.8,93,30.06,-9999.0,WNW,16.1,26.5,N/A,,Unknown,290,2012-12-30 13:15:00
8:55 AM,17.6,15.8,93,30.09,-9999.0,WNW,21.9,29.9,N/A,,Unknown,290,2012-12-30 13:55:00
9:15 AM,17.6,15.8,93,30.10,-9999.0,WNW,23.0,29.9,N/A,,Unknown,290,2012-12-30 14:15:00
9:35 AM,17.6,15.8,93,30.11,-9999.0,WNW,24.2,32.2,N/A,,Unknown,290,2012-12-30 14:35:00
9:55 AM,19.4,15.8,86,30.11,-9999.0,West,26.5,31.1,N/A,,Unknown,280,2012-12-30 14:55:00
10:15 AM,-9999,-9999,N/A,30.13,-9999.0,WNW,23.0,31.1,N/A,,Unknown,290,2012-12-30 15:15:00
10:35 AM,19.4,15.8,86,30.14,-9999.0,WNW,21.9,29.9,N/A,,Clear,290,2012-12-30 15:35:00
10:55 AM,19.4,15.8,86,30.14,-9999.0,WNW,20.7,28.8,N/A,,Scattered Clouds,290,2012-12-30 15:55:00
11:15 AM,21.2,15.8,80,30.14,-9999.0,WNW,15.0,32.2,N/A,,Scattered Clouds,300,2012-12-30 16:15:00
11:35 AM,21.2,15.8,80,30.15,-9999.0,WNW,17.3,26.5,N/A,,Scattered Clouds,290,2012-12-30 16:35:00
11:55 AM,21.2,15.8,80,30.14,-9999.0,WNW,18.4,32.2,N/A,,Scattered Clouds,300,2012-12-30 16:55:00
12:15 PM,21.2,14.0,74,30.13,-9999.0,WNW,16.1,27.6,N/A,,Clear,300,2012-12-30 17:15:00
12:35 PM,23.0,15.8,74,30.13,-9999.0,WNW,20.7,25.3,N/A,,Clear,290,2012-12-30 17:35:00
12:55 PM,23.0,15.8,74,30.12,-9999.0,WNW,16.1,25.3,N/A,,Clear,290,2012-12-30 17:55:00
1:15 PM,23.0,15.8,74,30.11,-9999.0,WNW,18.4,28.8,N/A,,Clear,290,2012-12-30 18:15:00
1:35 PM,23.0,15.8,74,30.13,-9999.0,WNW,19.6,31.1,N/A,,Clear,290,2012-12-30 18:35:00
1:55 PM,23.0,15.8,74,30.12,-9999.0,West,20.7,26.5,N/A,,Clear,280,2012-12-30 18:55:00
2:15 PM,23.0,15.8,74,30.14,-9999.0,WNW,25.3,32.2,N/A,,Clear,290,2012-12-30 19:15:00
2:35 PM,23.0,15.8,74,30.14,-9999.0,WNW,26.5,34.5,N/A,,Clear,290,2012-12-30 19:35:00
2:55 PM,23.0,15.8,74,30.14,-9999.0,West,21.9,32.2,N/A,,Clear,280,2012-12-30 19:55:00
3:15 PM,23.0,15.8,74,30.16,-9999.0,West,23.0,29.9,N/A,,Clear,280,2012-12-30 20:15:00
3:35 PM,21.2,15.8,80,30.17,-9999.0,West,25.3,31.1,N/A,,Clear,280,2012-12-30 20:35:00
3:55 PM,21.2,15.8,80,30.18,-9999.0,West,25.3,31.1,N/A,,Clear,280,2012-12-30 20:55:00
4:15 PM,21.2,15.8,80,30.18,-9999.0,West,25.3,33.4,N/A,,Clear,280,2012-12-30 21:15:00
4:35 PM,19.4,14.0,80,30.18,-9999.0,WNW,24.2,32.2,N/A,,Clear,290,2012-12-30 21:35:00
4:55 PM,19.4,14.0,80,30.17,-9999.0,WNW,24.2,29.9,N/A,,Clear,290,2012-12-30 21:55:00
5:15 PM,19.4,14.0,80,30.17,-9999.0,WNW,23.0,29.9,N/A,,Clear,290,2012-12-30 22:15:00
5:35 PM,17.6,14.0,86,30.18,-9999.0,WNW,21.9,25.3,N/A,,Unknown,290,2012-12-30 22:35:00
5:55 PM,17.6,14.0,86,30.17,-9999.0,WNW,20.7,-,N/A,,Unknown,290,2012-12-30 22:55:00
6:15 PM,17.6,14.0,86,30.17,-9999.0,WNW,19.6,23.0,N/A,,Unknown,290,2012-12-30 23:15:00
6:35 PM,17.6,12.2,79,30.18,10.0,West,17.3,-,N/A,,Clear,280,2012-12-30 23:35:00
6:55 PM,17.6,12.2,79,30.19,0.5,West,19.6,-,N/A,Snow,Light Snow,280,2012-12-30 23:55:00
7:15 PM,17.6,12.2,79,30.20,-9999.0,West,19.6,-,N/A,,Unknown,280,2012-12-31 00:15:00
7:35 PM,15.8,12.2,86,30.20,-9999.0,WNW,19.6,25.3,N/A,Snow,Light Snow,290,2012-12-31 00:35:00
7:55 PM,17.6,12.2,79,30.20,-9999.0,WNW,18.4,25.3,N/A,,Unknown,290,2012-12-31 00:55:00
8:15 PM,17.6,12.2,79,30.20,-9999.0,West,19.6,24.2,N/A,,Unknown,280,2012-12-31 01:15:00
8:35 PM,17.6,12.2,79,30.21,-9999.0,West,18.4,-,N/A,Snow,Light Snow,280,2012-12-31 01:35:00
8:55 PM,17.6,12.2,79,30.21,-9999.0,West,19.6,26.5,N/A,,Unknown,280,2012-12-31 01:55:00
9:15 PM,17.6,12.2,79,30.21,-9999.0,West,20.7,-,N/A,,Unknown,270,2012-12-31 02:15:00
9:35 PM,17.6,12.2,79,30.21,-9999.0,West,20.7,-,N/A,,Unknown,270,2012-12-31 02:35:00
9:55 PM,17.6,12.2,79,30.21,-9999.0,West,18.4,26.5,N/A,,Unknown,280,2012-12-31 02:55:00
10:15 PM,17.6,12.2,79,30.21,-9999.0,West,18.4,-,N/A,,Unknown,280,2012-12-31 03:15:00
10:35 PM,15.8,12.2,86,30.22,-9999.0,West,20.7,-,N/A,,Unknown,270,2012-12-31 03:35:00
10:55 PM,17.6,12.2,79,30.22,10.0,West,19.6,-,N/A,Snow,Light Snow,280,2012-12-31 03:55:00
11:15 PM,17.6,12.2,79,30.21,0.2,West,18.4,-,N/A,Snow,Light Snow,280,2012-12-31 04:15:00
11:35 PM,15.8,12.2,86,30.20,10.0,West,16.1,-,N/A,,Clear,280,2012-12-31 04:35:00
11:55 PM,15.8,12.2,86,30.20,10.0,West,16.1,-,N/A,,Clear,270,2012-12-31 04:55:00